STARLINK-1122, 44949

Orbit data source: Space-Track

STARLINK-1122, 44949 is a payload satellite owned by SpaceX/Seattle (US) in LEO that was launched on Tue, 07 Jan 2020 UTC via an FALCON 9 launch vehicle from the Air Force Eastern Test Range (AFETR). Payload-class satellites include a variety of spacecraft equipped with specific instruments for various scientific and technological missions. These include communications satellites like Starlink; space stations such as the ISS; scientific satellites like the Hubble; Earth observation satellites from companies like Planet Labs, Umbra, and HawkEye 360; GPS; miniature CubeSats for education and research; and military/defense satellites.

Loading next visibility...
Identifier
44949, 2020-001AM
Orbit
LEO
Country
Flag of USUS
Related business
Manufacturer
SpaceX/Seattle
Mission
Operational Commercial Communications
Bus & Motor
STARLINK, Unknown motor
Mass
260 kg wet, ~248 kg dry
Launch date (UTC)
2020-01-07 (6 years ago)
Launch vehicle
FALCON 9
Launch site
Air Force Eastern Test Range (AFETR)
Object type
Payload
Rocket body
Debris
Shape & HBR
Box + 1 Pan, 10.1 m
Radar Cross Section
13.562 m², Large (>1 m²)

Expand to show TLE details & history
Last TLE update: 9 hours ago

TLE from 9 hours ago
0 STARLINK-1122
1 44949U 20001AM  25295.82318765  .00002074  00000-0  15816-3 0  9993
2 44949  53.0547 225.5215 0001358 108.9083 251.2054 15.06387768319344
Epoch: 2025-10-22T19:45Z
TLE epoch observation values (Epoch: 2025-10-22T19:45:23.412Z)
Latitude
0.00001°
Longitude
-102.31731°
Altitude
548.431 km
Speed
7.589 km/s
True Right ascension
15h 02m 05s
True Declination
0° 00' 00"
Sunlit
Object was in daylight at epoch
Visualization orbit readout
Latitude
Unknown
Longitude
Unknown
Altitude
Unknown
Speed
Unknown
Apparent Right ascension
Unknown
Apparent Declination
Unknown
Sunlit
N/A
Visualization observer readout
Local Sidereal Time
00:20:10
Azimuth
Unknown
Elevation
Unknown
Doppler factor
Unknown
Orbital elements
Apogee altitude
548.46 km
Perigee altitude
546.579 km
Semi-major axis
6,925.657 km
Eccentricity
0.00014
Inclination
53.0547°
RAAN
225.5215°
Arg. of periapsis
108.9083°
True anomaly
251.19067°
Mean anomaly
251.2054°
Eccentric anomaly
251.19803°
Mean motion
3.76575 °/min
Orbital period
95.6 mins
BSTAR
0.00015816
Loading maneuver chart data...
Computing Atmospheric mass density...

Documentation

Showing up to 5 results
|